FENGYUN 1C DEB

Satellite information

Favourite Embed

Satellite Type and Status

DEBRISIN ORBIT

Key statistics

Satellite FENGYUN 1C DEB at a glance.

Uptime

9619

Days in orbit

Revolutions

≈ 14.1

Per day

Orbit

SSO

Sun Synchronous Orbit

Inclination

98.8

Latest

Satellite identification and parameters

Extended collection of information and parameters for FENGYUN 1C DEB.

Object identification

Identified? True

Debris? True

Object name: FENGYUN 1C DEB

International designator: 1999-025RX

Object number (NORAD): 30118

Object ID (CCSDS): 30118

Country: PEOPLES REPUBLIC OF CHINA (PRC)

Current information (Y/N): Y

RCS size: SMALL

Orbital parameters

Period: 102.486 minutes

Inclination: 98.8048 deg

SMA: 7254.424 km

Apoapsis: 937.187 km

Periapsis: 815.391 km

RAAN: 257.8204 deg

Eccentricy: 0.00839466

Argument of periapsis: 327.7027 deg

Mean anomaly: 46.7937 deg

Mean motion: 14.05071293 rev/day

Mean motion (dot): 0.00000259 rev/day2

B* drag term: 0.00018159742 1/REarth

Two-line elements (TLE)

Creation date: Sept. 8, 2025, 9:49 a.m.

Reference frame: TEME

Reference center: EARTH

Epoch: Sept. 8, 2025, 7:05 a.m. UTC

TLE line 0: 0 FENGYUN 1C DEB

TLE line 1: 1 30118U 99025RX 25251.29518521 .00000259 00000-0 18160-3 0 9991

TLE line 2: 2 30118 98.8048 257.8204 0083947 327.7027 46.7937 14.05071293955916

Live tracking on map

Real-time ground track for satellite FENGYUN 1C DEB.

In-orbit conjunctions

There are no conjunctions computed for FENGYUN 1C DEB, at the moment. Check back to stay up to date, as we update our databases every day.

Go to all conjunctions

Associated space launch

Chinese polar orbiting meteorological satellite

FENGYUN 1C DEB was lifted into orbit during the mission ‘Long March 4B | Feng Yun 1C’, on board a Long March 4B space rocket.

The launch took place on May 10, 1999, 1:33 a.m. from Launch Complex 7.

For more information about the launch, click the button.

Launch to space Long March 4B | Feng Yun 1C
Long March 4B | Feng Yun 1C

Agency: N/A

Status: Launch Successful

Launch date: May 10, 1999, 1:33 a.m. UTC

Rocket: Long March 4B

Launch pad: Launch Complex 7

Location: Taiyuan Satellite Launch Center, People's Republic of China

...

Latest news about this satellite

There are no fresh news available about this satellite. Check back as we update our databases every day.


Newsletter sign-up

Weekly statistics, charts and insights to help you stay on top of the space industry.